Regional Weather Roundup
Issued by NWS

Home | Current Version | Previous Version | Graphics & Text | Print | Product List | Glossary On
Versions: 1 2 3 4 5 6 7 8 9 10 11 12 13 14 15 16 17 18 19 20 21 22 23 24 25 26 27 28 29 30 31 32 33 34 35 36 37 38 39 40 41 42 43 44 45 46 47 48 49 50
000
ASUS43 KDTX 251810
RWRMI
MICHIGAN HOURLY REGIONAL WEATHER ROUNDUP
NATIONAL WEATHER SERVICE DETROIT/PONTIAC MI
200 PM EDT SUN JUN 25 2017

NOTE: "FAIR" INDICATES FEW OR NO CLOUDS BELOW 12,000 FEET WITH NO
SIGNIFICANT WEATHER AND/OR OBSTRUCTION TO VISIBILITY.

MIZ047>049-052>055-059>063-066>070-074>076-081>083-251900-
SOUTHEAST LOWER MICHIGAN

CITY           SKY/WX    TMP DP  RH WIND       PRES   REMARKS
ADRIAN         PTSUNNY   69  45  41 W13G23    30.06F
6HR MIN TEMP:  59; 6HR MAX TEMP:  71;

ALMA           LGT RAIN  61  53  75 W13G18    30.02S
ANN ARBOR      PTSUNNY   69  49  48 W17       30.03S
BAD AXE        PTSUNNY   62  53  71 W9        29.98F
6HR MIN TEMP:  56; 6HR MAX TEMP:  66;

CARO           CLOUDY    63  52  67 W13G22    30.00S
DETROIT CITY   PTSUNNY   70  47  43 W10       30.01S
6HR MIN TEMP:  60; 6HR MAX TEMP:  70; 6HR PCP: TRACE;

DETROIT        PTSUNNY   69  47  45 W15       30.04S
6HR MIN TEMP:  61; 6HR MAX TEMP:  72;

FLINT          CLOUDY    65  49  56 W16       30.02S
6HR MIN TEMP:  59; 6HR MAX TEMP:  67; 6HR PCP: TRACE;

GROSSE ILE     PTSUNNY   69  46  45 W10G18    30.03R
6HR MIN TEMP:  58; 6HR MAX TEMP:  71;

HILLSDALE      MOSUNNY   70  45  40 W12G26    30.06S
HOWELL         PTSUNNY   69  44  40 W18G24    30.02F
6HR MIN TEMP:  58; 6HR MAX TEMP:  69;


CITY           SKY/WX    TMP DP  RH WIND       PRES   REMARKS
JACKSON        CLOUDY    66  46  48 W13G23    30.04F
6HR MIN TEMP:  58; 6HR MAX TEMP:  70;

LAMBERTVILLE   PTSUNNY   71  46  40 W12G17    30.05S
6HR MIN TEMP:  58; 6HR MAX TEMP:  71;

LANSING        PTSUNNY   70  47  43 W21G29    30.03S
6HR MIN TEMP:  59; 6HR MAX TEMP:  70;

LAPEER         CLOUDY    66  47  50 NW15G22   30.02R
6HR MIN TEMP:  58; 6HR MAX TEMP:  67;

MASON          CLOUDY    67  48  49 W16       30.03F
MONROE         PTSUNNY   69  47  45 W15G21    30.04S
MT. CLEMENS    PTSUNNY   69  47  45 W14G22    30.00R
6HR MIN TEMP:  61; 6HR MAX TEMP:  71;

PONTIAC        PTSUNNY   66  47  50 W16       30.01F
6HR MIN TEMP:  59; 6HR MAX TEMP:  69;

PORT HOPE        N/A     65  51  60 W12G18    29.95F
6HR MIN TEMP:  58; 6HR MAX TEMP:  66;

PORT HURON     CLOUDY    66  48  52 W6G16     30.00R
TRI CITIES     CLOUDY    61  56  83 SW7       30.01F
6HR MIN TEMP:  58; 6HR MAX TEMP:  65; 6HR PCP:  0.05;

MIDLAND        CLOUDY    62  54  76 SW8       29.99F
6HR MIN TEMP:  57; 6HR MAX TEMP:  65; 6HR PCP:  0.06;

TROY           PTSUNNY   70  43  38 W12G22    30.04S
SAGINAW HB     LGT RAIN  59  52  77 SW5       30.01S
$$
MIZ043>046-050>051-056>058-064>065-071>073-077>080-251900-
SOUTHWEST LOWER MICHIGAN

CITY           SKY/WX    TMP DP  RH WIND       PRES   REMARKS
BATTLE CREEK   PTSUNNY   69  46  43 W17G26    30.07S
6HR MIN TEMP:  57; 6HR MAX TEMP:  71;

BENTON HARBOR  SUNNY     69  47  45 W20G25    30.10S
6HR MIN TEMP:  60; 6HR MAX TEMP:  70;

BIG RAPIDS     CLOUDY    62  47  58 NW5G21    30.00S
6HR MIN TEMP:  55; 6HR MAX TEMP:  62;

COLDWATER      PTSUNNY   69  44  40 W15G25    30.07S
6HR MIN TEMP:  59; 6HR MAX TEMP:  70;

FREMONT        LGT RAIN  60  51  72 W14       30.03S
HOLLAND        SUNNY     67  50  54 W20G26    30.07S
6HR MIN TEMP:  59; 6HR MAX TEMP:  68;

GRAND RAPIDS   CLOUDY    67  51  56 W18G26    30.04S
6HR MIN TEMP:  58; 6HR MAX TEMP:  67;

IONIA          CLOUDY    64  49  58 W17       30.02S
6HR MIN TEMP:  58; 6HR MAX TEMP:  65;

KALAMAZOO      MOSUNNY   70  42  36 W15G26    30.08S
6HR MIN TEMP:  58; 6HR MAX TEMP:  71;

LUDINGTON      CLOUDY    62  54  75 W12G17    30.02S
6HR MIN TEMP:  55; 6HR MAX TEMP:  62;

MARSHALL       PTSUNNY   71  47  42 W15G23    30.06S
6HR MIN TEMP:  58; 6HR MAX TEMP:  71;

MOUNT PLEASANT DRIZZLE   59  53  81 W6        29.99S
6HR MIN TEMP:  56; 6HR MAX TEMP:  63;

MUSKEGON       PTSUNNY   65  52  62 W14G26    30.05S
6HR MIN TEMP:  58; 6HR MAX TEMP:  68;

SOUTH HAVEN    SUNNY     68  52  56 W15G21    30.09S
$$
MIZ016>042-251900-
NORTHERN LOWER MICHIGAN

CITY           SKY/WX    TMP DP  RH WIND       PRES   REMARKS
ALPENA         LGT RAIN  61  58  90 N6        29.95R
6HR MIN TEMP:  56; 6HR MAX TEMP:  65; 6HR PCP:  0.01;

BEAVER ISLAND  MOSUNNY   64  54  69 NW8       29.97F
6HR MIN TEMP:  55; 6HR MAX TEMP:  64;

BELLAIRE       PTSUNNY   63  51  64 W8G16     29.97S
6HR MIN TEMP:  56; 6HR MAX TEMP:  64;

CADILLAC       CLOUDY    56  53  88 W5        29.98S FOG
CHARLEVOIX     SUNNY     60  54  78 NW9       30.01R
FRANKFORT      CLOUDY    61  51  70 W8        30.00S
GAYLORD        PTSUNNY   65  47  52 W14       29.95S
6HR MIN TEMP:  56; 6HR MAX TEMP:  65; 6HR PCP:  0.01;

GRAYLING       RAIN      56  53  90 W8        29.98S
6HR MIN TEMP:  51; 6HR MAX TEMP:  62;

HARBOR SPRINGS CLOUDY    60  54  81 W8        29.96S
HOUGHTON LAKE  MOSUNNY   62  53  72 W9        29.98S
6HR MIN TEMP:  54; 6HR MAX TEMP:  64; 6HR PCP:  0.02;

MANISTEE       CLOUDY    63  53  70 NW13      30.00S
OSCODA         CLOUDY    67  49  53 SW7       29.94S
6HR MIN TEMP:  56; 6HR MAX TEMP:  69;

PELLSTON       PTSUNNY   65  50  58 N7        29.95F
6HR MIN TEMP:  59; 6HR MAX TEMP:  67; 6HR PCP: TRACE;

ROGERS CITY    CLOUDY    59  54  85 N7        29.96S
TRAVERSE CITY  CLOUDY    62  52  69 W8        29.97F
6HR MIN TEMP:  56; 6HR MAX TEMP:  62; 6HR PCP:  0.14;

$$
MIZ007>008-015-251900-
EASTERN UPPER MICHIGAN

CITY           SKY/WX    TMP DP  RH WIND       PRES   REMARKS
KINROSS        MOSUNNY   66  50  56 N8        29.93F
6HR MIN TEMP:  51; 6HR MAX TEMP:  66;

MACKINAC ISLAN SUNNY     63  52  68 NW6       29.94F
6HR MIN TEMP:  54; 6HR MAX TEMP:  63;

NEWBERRY       MOSUNNY   65  51  60 CALM      29.95F
6HR MIN TEMP:  51; 6HR MAX TEMP:  65;

S. S. MARIE    SUNNY     67  53  61 SW12      29.92S
6HR MIN TEMP:  54; 6HR MAX TEMP:  68;

MUNISING         N/A     53  50  89 N7        29.99S
6HR MIN TEMP:  50; 6HR MAX TEMP:  54;

$$
MIZ004>006-011>014-085-251900-
CENTRAL UPPER MICHIGAN

CITY           SKY/WX    TMP DP  RH WIND       PRES   REMARKS
MANISTIQUE     CLOUDY    63  52  68 N6        29.97S
6HR MIN TEMP:  53; 6HR MAX TEMP:  64;

ESCANABA       CLOUDY    63  53  70 S10       29.97S
6HR MIN TEMP:  54; 6HR MAX TEMP:  65;

MENOMINEE      CLOUDY    65  52  62 VRB5      29.99F
6HR MIN TEMP:  54; 6HR MAX TEMP:  65; 6HR PCP:  0.01;

SAWYER-GWINN   MOSUNNY   61  50  67 NE13      29.99F
$$
MIZ001>003-009>011-084-251900-
WESTERN UPPER MICHIGAN

CITY           SKY/WX    TMP DP  RH WIND       PRES   REMARKS
IRON MOUNTAIN  MOSUNNY   66  50  56 W10       29.98F
6HR MIN TEMP:  53; 6HR MAX TEMP:  66;

HOUGHTON       MOSUNNY   62  53  72 NW8       30.00S
6HR MIN TEMP:  52; 6HR MAX TEMP:  63;

COPPER HARBOR    N/A     48  45  89 N8        30.01S
6HR MIN TEMP:  45; 6HR MAX TEMP:  54;

IRONWOOD       LGT RAIN  57  53  86 N5        30.02S
6HR MIN TEMP:  54; 6HR MAX TEMP:  58;

$$

ABBREVIATIONS USED IN REMARKS
   TC - TEMPERATURE IN CELSIUS
  WCI - WIND CHILL INDEX
   HX - HEAT INDEX
  VSB - VISIBILITY




USA.gov is the U.S. government's official web portal to all federal, state and local government web resources and services.